Fort Benning, AL

3:32 AM CDT on June 29, 2017 (GMT -0500)
Lawson Army Air Field

Weather History for KLSF - December, 2012

Change the Weather History Date:

Thursday, December 6, 2012

  Actual Average Record
Temperature  
Mean Temperature 58 °F -  
Max Temperature 71 °F 61 °F 79 °F (2013)
Min Temperature 46 °F 37 °F 24 °F (2000)
Degree Days  
Heating Degree Days 6    
Growing Degree Days 8 (Base 50)    
Moisture  
Dew Point 53 °F    
Average Humidity 85    
Maximum Humidity 100    
Minimum Humidity 52    
Precipitation  
Precipitation 0.00 in - - ()
Sea Level Pressure  
Sea Level Pressure 30.09 in    
Wind  
Wind Speed 3 mph (ENE)    
Max Wind Speed 14 mph    
Max Gust Speed -    
Visibility 8 miles    
Events Rain    
Averages and records for this station are not official NWS values.
T = Trace of Precipitation, MM = Missing Value Source: NWS Daily Summary

Daily Weather History Graph

Daily Weather History Graph

Search for Another Location

Airport or City:

Trip Planner

Search our weather history database for the weather conditions in past years. The results will help you decide how hot, cold, wet, or windy it might be!

Date:

Astronomy

Dec. 06, 2012 Rise Set
Actual Time 7:27 AM EST 5:34 PM EST
Civil Twilight 7:00 AM EST 6:01 PM EST
Nautical Twilight 6:30 AM EST 6:32 PM EST
Astronomical Twilight 6:00 AM EST 7:01 PM EST
Moon 12:06 AM EST (12/6) 12:39 PM EST (12/6)
Length of Visible Light 11h 00m
Length of Day
10h 06m
Waning Gibbous, 49% of the Moon is Illuminated
Dec 6
Waning Gibbous
Dec 13
New
Dec 20
First Quarter
Dec 28
Full
Jan 4
Last Quarter

Hourly Weather History & Observations

Time (EST) Temp. Dew Point Humidity Pressure Visibility Wind Dir Wind Speed Gust Speed Precip Events Conditions
12:55 AM 50.5 °F 49.5 °F 96% 30.10 in 10.0 mi Calm Calm - N/A   Scattered Clouds
1:59 AM 51.8 °F 51.8 °F 100% 30.10 in 10.0 mi Calm Calm - N/A   Clear
2:55 AM 50.0 °F 50.0 °F 100% 30.10 in 9.0 mi Calm Calm - N/A   Clear
3:55 AM 48.2 °F 48.2 °F 100% 30.10 in 7.0 mi NW 3.5 mph - N/A   Clear
4:56 AM 48.2 °F 48.2 °F 100% 30.10 in 7.0 mi NW 6.9 mph - N/A   Clear
5:57 AM 50.0 °F 50.0 °F 100% 30.10 in 10.0 mi Calm Calm - N/A   Scattered Clouds
6:10 AM 50.0 °F 50.0 °F 100% 30.08 in 5.0 mi Calm Calm - N/A   Mostly Cloudy
6:45 AM 48.2 °F 48.2 °F 100% 30.10 in 4.0 mi Calm Calm - N/A   Scattered Clouds
6:57 AM 48.2 °F 48.2 °F 100% 30.14 in 3.0 mi Calm Calm - N/A   Scattered Clouds
7:55 AM 46.4 °F 46.4 °F 100% 30.14 in 3.0 mi Calm Calm - N/A   Scattered Clouds
8:12 AM 46.4 °F 46.4 °F 100% 30.12 in 3.0 mi Calm Calm - N/A   Scattered Clouds
8:35 AM 51.8 °F 50.0 °F 94% 30.12 in 4.0 mi Calm Calm - N/A   Scattered Clouds
8:55 AM 53.6 °F 53.6 °F 100% 30.14 in 5.0 mi Calm Calm - N/A   Scattered Clouds
9:55 AM 58.5 °F 58.3 °F 99% 30.12 in 10.0 mi NW 3.5 mph - N/A   Mostly Cloudy
10:55 AM 66.6 °F 55.9 °F 69% 30.12 in 10.0 mi NW 5.8 mph - N/A   Partly Cloudy
11:55 AM 70.7 °F 54.1 °F 56% 30.09 in 10.0 mi NNE 3.5 mph - N/A   Mostly Cloudy
12:55 PM 71.6 °F 52.9 °F 52% 30.06 in 10.0 mi ESE 11.5 mph - N/A   Overcast
1:55 PM 69.1 °F 55.2 °F 61% 30.05 in 10.0 mi ESE 13.8 mph - N/A   Overcast
2:13 PM 68.0 °F 57.2 °F 68% 30.06 in 10.0 mi SE 13.8 mph - N/A Rain Light Rain
2:40 PM 64.4 °F 59.0 °F 83% 30.05 in 8.0 mi East 3.5 mph - N/A   Overcast
2:42 PM 64.4 °F 59.0 °F 83% 30.05 in 9.0 mi East 3.5 mph - N/A Rain Light Rain
2:51 PM 64.4 °F 59.0 °F 83% 30.05 in 10.0 mi Calm Calm - N/A   Overcast
2:55 PM 64.0 °F 59.2 °F 84% 30.05 in 10.0 mi North 3.5 mph - 0.00 in   Overcast
3:55 PM 66.6 °F 58.6 °F 76% 30.04 in 10.0 mi NE 3.5 mph - N/A   Overcast
4:55 PM 66.7 °F 56.1 °F 69% 30.05 in 10.0 mi ENE 8.1 mph - N/A   Overcast
5:55 PM 63.9 °F 54.9 °F 72% 30.06 in 10.0 mi ENE 5.8 mph - N/A   Mostly Cloudy
6:55 PM 61.7 °F 55.2 °F 79% 30.07 in 10.0 mi ENE 8.1 mph - N/A   Clear
7:55 PM 59.9 °F 54.5 °F 82% 30.07 in 10.0 mi ENE 6.9 mph - N/A   Clear
8:55 PM 58.5 °F 53.6 °F 84% 30.08 in 10.0 mi ENE 4.6 mph - N/A   Clear
9:05 PM 59.0 °F 53.6 °F 82% 30.08 in 10.0 mi ENE 3.5 mph - N/A   Mostly Cloudy
9:19 PM 59.0 °F 53.6 °F 82% 30.08 in 10.0 mi ENE 4.6 mph - N/A   Overcast
9:55 PM 60.4 °F 54.7 °F 81% 30.08 in 10.0 mi East 5.8 mph - N/A   Overcast
10:55 PM 60.6 °F 55.0 °F 82% 30.08 in 10.0 mi East 5.8 mph - N/A   Overcast
11:55 PM 60.6 °F 54.9 °F 81% 30.08 in 10.0 mi East 5.8 mph - N/A   Overcast